EWG40P EDDH-ESSA

Flight info

Callsign EWG40P
Flight time N/A
Altitude 37000
Route LUGEG3G LUGEG P605 MEGAR DCT KUBIS DCT MIKNA N851 PELUP Z226 NILUG
Aircraft A320/M-SDE3FGHIRWY/LB1

Departure

Time 2026-05-07 17:07
Airport Hamburg Helmut Schmidt Airport (EDDH)

Arrival

Time N/A
Airport Stockholm-Arlanda Airport (ESSA)
Time Latitude Longitude Altitude Speed Heading
2026-05-07 16:15 53.63245 10.00358 49 ft 0 kts 86°
2026-05-07 16:57 53.63244 10.00328 48 ft 4 kts 86°
2026-05-07 16:57 53.63242 10.00283 48 ft 4 kts 86°
2026-05-07 16:57 53.63241 10.00248 43 ft 3 kts 87°
2026-05-07 16:58 53.63243 10.00203 48 ft 4 kts 116°
2026-05-07 16:58 53.63259 10.00175 44 ft 4 kts 169°
2026-05-07 16:58 53.63264 10.00173 45 ft 0 kts 175°
2026-05-07 17:01 53.63216 10.00179 48 ft 11 kts 176°
2026-05-07 17:02 53.63136 10.00189 48 ft 12 kts 175°
2026-05-07 17:02 53.63062 10.00177 46 ft 10 kts 205°
2026-05-07 17:02 53.63009 10.00117 45 ft 9 kts 213°
2026-05-07 17:02 53.62959 10.00065 48 ft 8 kts 212°
2026-05-07 17:03 53.62930 10.00037 48 ft 0 kts 206°
2026-05-07 17:03 53.62920 10.00033 48 ft 4 kts 182°
2026-05-07 17:03 53.62871 10.00025 48 ft 11 kts 245°
2026-05-07 17:03 53.62843 9.99946 47 ft 11 kts 234°
2026-05-07 17:04 53.62817 9.99793 45 ft 9 kts 307°
2026-05-07 17:04 53.62847 9.99763 45 ft 0 kts 332°
2026-05-07 17:06 53.62907 9.99709 45 ft 36 kts 332°
2026-05-07 17:06 53.63371 9.99316 47 ft 107 kts 332°
2026-05-07 17:06 53.64184 9.98600 52 ft 158 kts 332°
2026-05-07 17:06 53.65247 9.97671 581 ft 166 kts 336°
2026-05-07 17:07 53.66272 9.96787 1388 ft 168 kts 338°
2026-05-07 17:07 53.67412 9.95860 1765 ft 194 kts 338°
2026-05-07 17:07 53.68706 9.94863 2062 ft 217 kts 346°
2026-05-07 17:07 53.70231 9.94546 2732 ft 220 kts
2026-05-07 17:08 53.71729 9.94678 3837 ft 212 kts
2026-05-07 17:08 53.73107 9.95408 4745 ft 208 kts 34°
2026-05-07 17:08 53.74167 9.97085 5438 ft 217 kts 54°
2026-05-07 17:08 53.74933 9.99358 5954 ft 236 kts 64°
2026-05-07 17:09 53.75692 10.01977 6554 ft 253 kts 64°
2026-05-07 17:09 53.76460 10.04716 7292 ft 262 kts 65°
2026-05-07 17:09 53.77230 10.07536 8168 ft 266 kts 65°
2026-05-07 17:09 53.78021 10.10399 9031 ft 271 kts 64°
2026-05-07 17:10 53.78842 10.13326 9691 ft 284 kts 64°
2026-05-07 17:10 53.79704 10.16354 10650 ft 282 kts 64°
2026-05-07 17:10 53.80596 10.19453 10991 ft 305 kts 63°
2026-05-07 17:10 53.81571 10.22804 11274 ft 328 kts 63°
2026-05-07 17:11 53.82589 10.26307 11811 ft 340 kts 63°
2026-05-07 17:11 53.83638 10.29933 12517 ft 346 kts 63°
2026-05-07 17:11 53.84697 10.33618 13269 ft 351 kts 64°
2026-05-07 17:11 53.85776 10.37406 13978 ft 356 kts 64°
2026-05-07 17:12 53.86853 10.41204 14666 ft 359 kts 64°
2026-05-07 17:12 53.87941 10.45056 15323 ft 363 kts 64°
2026-05-07 17:12 53.89023 10.48878 15974 ft 367 kts 64°
2026-05-07 17:12 53.90131 10.52792 16643 ft 370 kts 64°
2026-05-07 17:13 53.91261 10.56790 17292 ft 374 kts 64°
2026-05-07 17:13 53.92375 10.60732 17945 ft 377 kts 64°
2026-05-07 17:13 53.93539 10.64748 18528 ft 381 kts 59°
2026-05-07 17:13 53.95134 10.68334 19037 ft 383 kts 43°
2026-05-07 17:14 53.97235 10.71112 19574 ft 386 kts 33°
2026-05-07 17:14 53.99479 10.73763 20107 ft 390 kts 33°
2026-05-07 17:14 54.01696 10.76352 20639 ft 393 kts 33°
2026-05-07 17:14 54.03960 10.78981 21134 ft 397 kts 33°
2026-05-07 17:15 54.06253 10.81640 21661 ft 399 kts 33°
2026-05-07 17:15 54.08563 10.84329 22171 ft 403 kts 33°
2026-05-07 17:15 54.10881 10.87038 22663 ft 406 kts 33°
2026-05-07 17:15 54.13217 10.89797 23146 ft 410 kts 34°
2026-05-07 17:16 54.15537 10.92650 23620 ft 414 kts 35°
2026-05-07 17:16 54.17849 10.95589 24057 ft 416 kts 36°
2026-05-07 17:16 54.20168 10.98583 24462 ft 419 kts 36°
2026-05-07 17:16 54.22493 11.01595 24890 ft 420 kts 36°
2026-05-07 17:17 54.24832 11.04622 25287 ft 423 kts 36°
2026-05-07 17:17 54.27183 11.07649 25781 ft 422 kts 36°
2026-05-07 17:17 54.29536 11.10664 26192 ft 424 kts 36°
2026-05-07 17:17 54.31905 11.13648 26458 ft 423 kts 34°
2026-05-07 17:18 54.34517 11.15898 26818 ft 424 kts 17°
2026-05-07 17:18 54.37357 11.17311 27191 ft 426 kts 16°
2026-05-07 17:18 54.40092 11.19288 27557 ft 429 kts 31°
2026-05-07 17:18 54.42526 11.22268 27927 ft 431 kts 37°
2026-05-07 17:19 54.44933 11.25391 28335 ft 433 kts 37°
2026-05-07 17:19 54.47329 11.28521 28717 ft 435 kts 37°
2026-05-07 17:19 54.49736 11.31677 29135 ft 435 kts 37°
2026-05-07 17:19 54.52150 11.34847 29512 ft 437 kts 37°
2026-05-07 17:20 54.54573 11.38025 29826 ft 439 kts 37°
2026-05-07 17:20 54.57004 11.41215 30169 ft 441 kts 37°
2026-05-07 17:20 54.59449 11.44428 30446 ft 443 kts 37°
2026-05-07 17:20 54.61908 11.47659 30742 ft 444 kts 37°
2026-05-07 17:21 54.64371 11.50902 31004 ft 446 kts 37°
2026-05-07 17:21 54.66833 11.54144 31282 ft 447 kts 37°
2026-05-07 17:21 54.69308 11.57414 31656 ft 446 kts 37°
2026-05-07 17:21 54.71772 11.60677 32057 ft 444 kts 38°
2026-05-07 17:22 54.74207 11.63906 32542 ft 441 kts 38°
2026-05-07 17:22 54.76631 11.67124 32982 ft 438 kts 38°
2026-05-07 17:22 54.79042 11.70329 33378 ft 436 kts 38°
2026-05-07 17:22 54.80642 11.72457 33657 ft 436 kts 38°
2026-05-07 17:23 54.83850 11.76739 34168 ft 434 kts 38°
2026-05-07 17:23 54.85426 11.78844 34374 ft 434 kts 38°
2026-05-07 17:23 54.87826 11.82052 34632 ft 435 kts 38°
2026-05-07 17:23 54.91028 11.86338 34927 ft 437 kts 38°
2026-05-07 17:24 54.92630 11.88486 35072 ft 438 kts 38°
2026-05-07 17:24 54.95038 11.91719 35302 ft 439 kts 37°
2026-05-07 17:24 54.97456 11.94978 35499 ft 440 kts 37°
2026-05-07 17:24 54.99906 11.98287 35719 ft 441 kts 37°
2026-05-07 17:25 55.02312 12.01539 35934 ft 442 kts 37°
2026-05-07 17:25 55.04746 12.04830 36139 ft 444 kts 37°
2026-05-07 17:25 55.07178 12.08122 36339 ft 445 kts 37°
2026-05-07 17:25 55.09630 12.11446 36513 ft 446 kts 37°
2026-05-07 17:26 55.12085 12.14781 36680 ft 448 kts 38°
2026-05-07 17:26 55.14552 12.18137 36833 ft 450 kts 37°
2026-05-07 17:26 55.17022 12.21499 37023 ft 451 kts 37°
2026-05-07 17:26 55.19507 12.24887 37123 ft 452 kts 37°
2026-05-07 17:27 55.24464 12.31676 37136 ft 452 kts 37°
2026-05-07 17:27 55.29425 12.38488 37136 ft 452 kts 37°
2026-05-07 17:28 55.34374 12.45295 37136 ft 452 kts 38°
2026-05-07 17:28 55.39316 12.52131 37135 ft 452 kts 38°
2026-05-07 17:29 55.44369 12.59140 37136 ft 456 kts 38°
2026-05-07 17:29 55.64349 12.87089 37147 ft 459 kts 37°
2026-05-07 17:30 55.84321 13.15394 37118 ft 460 kts 38°
2026-05-07 17:30 56.04447 13.44285 37113 ft 461 kts 38°
2026-05-07 17:31 56.24214 13.73048 37119 ft 462 kts 38°
2026-05-07 17:31 56.44121 14.02444 37114 ft 462 kts 38°
2026-05-07 17:32 56.63946 14.32142 37114 ft 463 kts 38°
2026-05-07 17:32 56.77679 14.52936 37098 ft 463 kts 38°
2026-05-07 17:33 56.82626 14.60474 37108 ft 464 kts 38°
2026-05-07 17:33 56.87608 14.68101 37107 ft 464 kts 38°
2026-05-07 17:34 56.92514 14.75641 37092 ft 464 kts 38°
2026-05-07 17:34 56.97465 14.83274 37089 ft 464 kts 38°
2026-05-07 17:35 57.02401 14.90907 37094 ft 465 kts 39°
2026-05-07 17:35 57.07338 14.98573 37087 ft 466 kts 38°
2026-05-07 17:36 57.12286 15.06277 37088 ft 466 kts 38°
2026-05-07 17:36 57.17221 15.13996 37092 ft 466 kts 39°
2026-05-07 17:37 57.22165 15.21759 37097 ft 466 kts 39°
2026-05-07 17:37 57.27093 15.29528 37116 ft 466 kts 38°
2026-05-07 17:38 57.32018 15.37318 37116 ft 467 kts 38°
2026-05-07 17:38 57.36956 15.45140 37113 ft 466 kts 38°
2026-05-07 17:39 57.41881 15.52990 37116 ft 467 kts 39°
2026-05-07 17:39 57.46795 15.60849 37114 ft 467 kts 39°
2026-05-07 17:40 57.51696 15.68738 37131 ft 467 kts 38°
2026-05-07 17:40 57.56623 15.76661 37120 ft 467 kts 38°
2026-05-07 17:41 57.61540 15.84596 37121 ft 468 kts 38°
2026-05-07 17:41 57.66446 15.92565 37119 ft 469 kts 39°
2026-05-07 17:42 57.71365 16.00583 37124 ft 469 kts 39°
2026-05-07 17:42 57.76284 16.08645 37127 ft 470 kts 39°
2026-05-07 17:43 57.81194 16.16698 37128 ft 470 kts 39°
2026-05-07 17:43 57.86112 16.24772 37130 ft 470 kts 39°
2026-05-07 17:44 57.91024 16.32900 37142 ft 470 kts 39°
2026-05-07 17:44 57.94265 16.38294 37139 ft 470 kts 39°